Location: Corralito
(10.2667°N, 66.9500°W)
Time: 10:21:52
(UTC+00:00)

GPS 2-15 Rocket1 - Pass Details

Date: 13 December 2023
Orbit: 617 x 666 km, 19.8° (Epoch: 02 March)

Event Time Altitude Azimuth Distance (km) Brightness Sun altitude
Exits shadow 09:54:31 - 252° (WSW) 2,247 5.5 -10.2°
Reaches altitude 10° 09:55:32 10° 244° (WSW) 1,968 5.2 -10.0°
Maximum altitude 09:58:39 18° 201° (SSW) 1,526 5.1 -9.3°
Drops below altitude 10° 10:01:47 10° 158° (SSE) 1,983 6.3 -8.6°
Sets 10:04:49 0° 139° (SE) 2,899 7.8 -7.9°
